Home > Weather > Stonewall > Past weeks

Flag for Canada Weather for the Past 2 Weeks in Stonewall, Manitoba, Canada

Now
28 °F

Overcast.


Feels Like: 17 °F
Forecast: N/A
Wind: 16 mph from Southeast

Location: Winnipeg Int. Airportman.

Current Time: Feb 6, 2016 at 3:20:30 PM

Latest Report: Feb 6, 2016 at 2:00 PM


Visibility: 15 mi

Pressure: 29.63 "Hg

Humidity: 80%

Dew point: 23 °F

Location of StonewallLocation

Historic Weather in Stonewall — Graph

°F

Stonewall Temperature Yesterday

Maximum temperature yesterday: 18 °F (at 6:00 PM)
Minimum temperature yesterday: 5 °F (at 8:00 AM)
Average temperature yesterday: 14 °F

High & Low Weather Summary for the Past Weeks

 TemperatureHumidityPressure
High37 °F (Jan 27, 2:00 PM)100% (Jan 27, 10:00 AM)30.30 "Hg (Jan 27, 10:00 AM)
Low-4 °F (Feb 4, 8:00 AM)68% (Jan 26, 3:00 PM)29.21 "Hg (Jan 30, 1:00 AM)
Average18 °F83%29.90 "Hg
* Reported Jan 22 2:00 PM — Feb 6 2:00 PM, Stonewall, Weather by CustomWeather, © 2016

Note: Actual official high and low records may vary slightly from our data, if they occured in-between our weather recording intervals... More about our weather records

Advertising

Stonewall Weather History for the Previous 24 Hours

 ConditionsComfort  
Time TempWeatherWind HumidityBarometerVisibility
2:00 PM
Sat, Feb 6
28 °FOvercast.16 mph80%29.63 "Hg15 mi
1:00 PM27 °FOvercast.15 mph80%29.70 "Hg15 mi
12:00 PM27 °FOvercast.18 mph80%29.73 "Hg15 mi
11:00 AM25 °FOvercast.17 mph80%29.76 "Hg15 mi
10:00 AM23 °FOvercast.13 mph86%29.80 "Hg15 mi
9:00 AM21 °FPartly sunny.12 mph86%29.83 "Hg15 mi
8:00 AM21 °FPartly sunny.13 mph86%29.86 "Hg15 mi
7:00 AM19 °FPassing clouds.12 mph86%29.90 "Hg15 mi
6:00 AM19 °FOvercast.12 mph86%29.91 "Hg15 mi
5:00 AM19 °FOvercast.8 mph86%29.94 "Hg15 mi
4:45 AM19 °FPassing clouds.9 mph86%29.95 "Hg15 mi
4:00 AM18 °FLight snow. Overcast.9 mph86%29.97 "Hg15 mi
3:00 AM18 °FLight snow. Mostly cloudy.10 mph86%30.00 "Hg15 mi
2:00 AM18 °FLight snow. Overcast.8 mph86%30.02 "Hg15 mi
1:00 AM18 °FMostly cloudy.7 mph86%30.04 "Hg15 mi
12:00 AM18 °FOvercast.8 mph86%30.07 "Hg15 mi
11:00 PM
Fri, Feb 5
18 °FMostly cloudy.9 mph86%30.08 "Hg15 mi
10:00 PM18 °FOvercast.8 mph86%30.11 "Hg15 mi
9:00 PM18 °FOvercast.8 mph86%30.13 "Hg12 mi
8:00 PM16 °FOvercast.7 mph86%30.15 "Hg15 mi
7:00 PM16 °FOvercast.6 mph86%30.15 "Hg12 mi
6:00 PM18 °FMostly cloudy.6 mph79%30.16 "Hg12 mi
5:00 PM16 °FMostly cloudy.3 mph86%30.17 "Hg12 mi
4:00 PM16 °FMostly cloudy.3 mph86%30.17 "Hg12 mi
3:00 PM16 °FOvercast.5 mph86%30.17 "Hg12 mi
Weather by CustomWeather, © 2016

See weather overviewHow to use our weather pages